Regional Weather Roundup
Issued by NWS

Home | Current Version | Previous Version | Graphics & Text | Print | Product List | Glossary On
Versions: 1 2 3 4 5 6 7 8 9 10 11 12 13 14 15 16 17 18 19 20 21 22 23 24 25 26 27 28 29 30 31 32 33 34 35 36 37 38 39 40 41 42 43 44 45 46 47 48 49 50
000
ASUS43 KOAX 160210
RWRNE

WEATHER ROUNDUP FOR NEBRASKA
NATIONAL WEATHER SERVICE OMAHA NE
800 PM CST SUN JAN 15 2017

NOTES: SATELLITE DATA IS BEING USED TO AUGMENT CLOUD COVER ABOVE
       12000 FEET.
       "FAIR" INDICATES FEW OR NO CLOUDS BELOW 12,000 FEET WITH NO
       SIGNIFICANT WEATHER AND/OR OBSTRUCTIONS TO VISIBILITY.

  * THESE STATIONS DO NOT REPORT WEATHER SUCH AS RAIN...SNOW OR FOG.

NEZ001>004-019>022-054>056-160300-
NEBRASKA PANHANDLE

CITY           SKY/WX    TMP DP  RH WIND       PRES   REMARKS
SCOTTSBLUFF    CLOUDY    30  25  81 N8        29.99S WCI  22
ALLIANCE       CLOUDY    29  23  78 N6        29.98S WCI  23
CHADRON        CLOUDY    21  18  88 SW6       30.03S WCI  13
KIMBALL        CLOUDY    34  28  77 CALM      29.97S
SIDNEY         CLOUDY    29  26  89 CALM      29.98R
$$

NEZ057>060-069>072-079>082-160300-
SOUTHWEST NEBRASKA

CITY           SKY/WX    TMP DP  RH WIND       PRES   REMARKS
NORTH PLATTE   FRZ RAIN  32  29  88 E3        30.03F
IMPERIAL       FRZ RAIN  31  29  92 E5        30.01S FOG     WCI  26
LEXINGTON      MIX PCPN  31  29  92 E3        30.06F
MCCOOK         MIX PCPN  30  30 100 E7        30.04F FOG     WCI  23
OGALLALA       MIX PCPN  32  30  93 CALM      30.01F
$$

NEZ005>010-023>029-035>040-094-160300-
NORTH CENTRAL NEBRASKA

CITY           SKY/WX    TMP DP  RH WIND       PRES   REMARKS
VALENTINE      CLOUDY    32  23  69 CALM      30.04S
AINSWORTH      CLOUDY    32  27  80 S5        30.05R WCI  28
BROKEN BOW     FRZ RAIN  31  29  92 CALM      30.05F FOG
O`NEILL        CLOUDY    32  25  74 S6        30.09S WCI  26
ORD            FRZ RAIN  31  29  92 E3        30.08F FOG
THEDFORD       CLOUDY    35  26  71 S3        30.03F
$$

NEZ041-046>049-061>064-073>077-083>087-160300-
SOUTH CENTRAL NEBRASKA

CITY           SKY/WX    TMP DP  RH WIND       PRES   REMARKS
GRAND ISLAND   CLOUDY    30  30 100 E5        30.11F WCI  25
AURORA         CLOUDY    30  29  97 E5        30.11S FOG     WCI  25
HASTINGS       CLOUDY    30  28  92 E6        30.10F FOG     WCI  24
HEBRON         MIX PCPN  31  30  96 E5        30.12F WCI  26
HOLDREGE       MIX PCPN  30  29  96 E5        30.07S WCI  25
KEARNEY *      CLOUDY    30  27  86 NE3       30.08F
YORK           CLOUDY    30  30 100 CALM      30.12F
$$

NEZ011>018-030>034-042>045-160300-
NORTHEAST NEBRASKA

CITY           SKY/WX    TMP DP  RH WIND       PRES   REMARKS
NORFOLK        CLOUDY    30  25  81 SE5       30.13S WCI  25
ALBION         MIX PCPN  31  29  92 SE3       30.12S
BLAIR          MIX PCPN  32  30  94 SE3       30.15F
FREMONT        MIX PCPN  31  31 100 SE5       30.16F WCI  26
TEKAMAH        MIX PCPN  31  29  92 SE6       30.18F FOG     WCI  25
WAYNE          CLOUDY    32  26  78 S6        30.15S WCI  26
$$

NEZ050>053-065>068-078-088>093-160300-
SOUTHEAST NEBRASKA

CITY           SKY/WX    TMP DP  RH WIND       PRES   REMARKS
LINCOLN        CLOUDY    31  30  96 E5        30.16F WCI  26
OMAHA EPPLEY   FRZ RAIN  32  28  85 SE5       30.17F FOG     WCI  27
BEATRICE       MIX PCPN  32  31  96 E6        30.14F WCI  26
FALLS CITY     FRZ RAIN  32  31  96 E8        30.16F WCI  25
NEBRASKA CITY  MIX PCPN  31  31 100 E6        30.16F WCI  26
PLATTSMOUTH    MIX PCPN  32  29  90 E8        30.16F WCI  24
$$

NEZ044-045-051>053-067-160300-
OMAHA AREA

CITY           SKY/WX    TMP DP  RH WIND       PRES   REMARKS
OMAHA EPPLEY   FRZ RAIN  32  28  85 SE5       30.17F FOG     WCI  27
BLAIR          MIX PCPN  32  30  94 SE3       30.15F
FREMONT        MIX PCPN  31  31 100 SE5       30.16F WCI  26
MILLARD        DRIZZLE   33  32  94 CALM      30.17F
OFFUTT AFB     FRZ DRZL  32  32 100 CALM      30.17F
PLATTSMOUTH    MIX PCPN  32  29  90 E8        30.16F WCI  24
WAHOO          MIX PCPN  31  29  93 E7        30.16F WCI  24
$$




USA.gov is the U.S. government's official web portal to all federal, state and local government web resources and services.